Hourly Data Report for April 24, 2018

TORONTO CITY
ONTARIO
Current Station Operator: ECCC - MSC

43°40'00.000" N
79°24'00.000" W
112.50 m
6158355
71508
XTO

Download Data

Hourly Data (April 2018)
Hourly Data Report for April 24, 2018
TIME
LST
Temp Definition
°C
Dew Point Definition
°C
Rel Hum Definition
%
Precip. Amount Definition
mm

Wind Dir Definition
10's deg

Wind Spd Definition
km/h
Visibility Definition
km
Stn Press Definition
kPa
Hmdx Definition


Wind Chill Definition


Weather Definition


00:00 11.8 -5.9 28 0.0 LegendMM LegendMM   100.87     LegendNANA
01:00 10.3 -4.4 35 0.0 LegendMM LegendMM   100.84     LegendNANA
02:00 9.8 -3.1 40 0.0 LegendMM LegendMM   100.83     LegendNANA
03:00 9.5 -2.5 43 0.0 LegendMM LegendMM   100.82     LegendNANA
04:00 9.2 -1.0 49 0.0 LegendMM LegendMM   100.80     LegendNANA
05:00 10.3 0.1 49 0.0 LegendMM LegendMM   100.82     LegendNANA
06:00 10.3 0.1 49 0.0 LegendMM LegendMM   100.85     LegendNANA
07:00 11.2 0.5 48 0.0 LegendMM LegendMM   100.89     LegendNANA
08:00 12.2 1.8 49 0.0 LegendMM LegendMM   100.89     LegendNANA
09:00 12.6 2.5 50 0.0 LegendMM LegendMM   100.92     LegendNANA
10:00 13.5 5.2 57 0.0 LegendMM LegendMM   100.88     LegendNANA
11:00 14.5 5.4 54 0.0 LegendMM LegendMM   100.80     LegendNANA
12:00 14.8 4.1 48 0.0 LegendMM LegendMM   100.74     LegendNANA
13:00 15.2 3.7 46 0.0 LegendMM LegendMM   100.72     LegendNANA
14:00 15.6 3.1 43 0.0 LegendMM LegendMM   100.64     LegendNANA
15:00 16.2 3.4 42 0.0 LegendMM LegendMM   100.56     LegendNANA
16:00 11.1 2.6 56 0.0 LegendMM LegendMM   100.57     LegendNANA
17:00 11.1 3.8 60 0.0 LegendMM LegendMM   100.57     LegendNANA
18:00 10.6 6.8 77 0.0 LegendMM LegendMM   100.54     LegendNANA
19:00 10.6 8.1 85 0.2 LegendMM LegendMM   100.49     LegendNANA
20:00 10.7 8.4 86 0.4 LegendMM LegendMM   100.47     LegendNANA
21:00 11.0 8.9 87 0.5 LegendMM LegendMM   100.48     LegendNANA
22:00 10.7 8.8 88 0.6 LegendMM LegendMM   100.43     LegendNANA
23:00 9.9 8.4 90 0.6 LegendMM LegendMM   100.38     LegendNANA

Notes on Data Quality.

Legend

  • E = Estimated
  • M = Missing
  • NA = Not Available*
  • [empty] = Indicates an unobserved value
Date modified: